TimeCST,TemperatureF,Dew PointF,Humidity,Sea Level PressureIn,VisibilityMPH,Wind Direction,Wind SpeedMPH,Gust SpeedMPH,PrecipitationIn,Events,Conditions,WindDirDegrees,DateUTC
12:53 AM,41.0,32.0,70,30.23,10.0,South,12.7,-,N/A,,Clear,180,2012-11-17 06:53:00
1:53 AM,41.0,32.0,70,30.22,10.0,South,12.7,-,N/A,,Clear,180,2012-11-17 07:53:00
2:53 AM,41.0,32.0,70,30.21,10.0,South,12.7,-,N/A,,Clear,170,2012-11-17 08:53:00
3:53 AM,39.0,30.9,73,30.20,10.0,South,12.7,-,N/A,,Clear,170,2012-11-17 09:53:00
4:53 AM,39.0,30.9,73,30.19,10.0,South,13.8,-,N/A,,Clear,170,2012-11-17 10:53:00
5:53 AM,39.0,30.9,73,30.19,10.0,South,15.0,-,N/A,,Clear,170,2012-11-17 11:53:00
6:53 AM,39.0,30.0,70,30.18,10.0,South,17.3,-,N/A,,Clear,170,2012-11-17 12:53:00
7:53 AM,39.0,30.9,73,30.20,10.0,South,11.5,-,N/A,,Clear,170,2012-11-17 13:53:00
8:53 AM,43.0,32.0,65,30.20,10.0,South,15.0,-,N/A,,Clear,180,2012-11-17 14:53:00
9:53 AM,50.0,33.1,52,30.19,10.0,South,20.7,-,N/A,,Clear,180,2012-11-17 15:53:00
10:53 AM,52.0,33.1,49,30.19,10.0,South,19.6,27.6,N/A,,Clear,190,2012-11-17 16:53:00
11:53 AM,55.0,35.1,47,30.15,10.0,South,16.1,-,N/A,,Clear,190,2012-11-17 17:53:00
12:53 PM,59.0,35.1,41,30.11,10.0,South,16.1,23.0,N/A,,Clear,190,2012-11-17 18:53:00
1:53 PM,61.0,36.0,39,30.09,10.0,South,19.6,26.5,N/A,,Clear,180,2012-11-17 19:53:00
2:53 PM,63.0,37.0,38,30.07,10.0,South,21.9,-,N/A,,Clear,190,2012-11-17 20:53:00
3:53 PM,63.0,37.9,40,30.07,10.0,SSW,16.1,26.5,N/A,,Clear,200,2012-11-17 21:53:00
4:53 PM,60.1,39.9,47,30.08,10.0,South,9.2,-,N/A,,Clear,180,2012-11-17 22:53:00
5:53 PM,55.9,37.9,51,30.10,10.0,South,10.4,-,N/A,,Clear,180,2012-11-17 23:53:00
6:53 PM,53.1,37.0,55,30.11,10.0,South,13.8,-,N/A,,Clear,170,2012-11-18 00:53:00
7:53 PM,48.9,36.0,61,30.12,10.0,South,10.4,-,N/A,,Clear,170,2012-11-18 01:53:00
8:53 PM,46.9,36.0,66,30.12,10.0,South,11.5,-,N/A,,Clear,180,2012-11-18 02:53:00
9:53 PM,46.0,35.1,66,30.10,10.0,South,12.7,-,N/A,,Clear,180,2012-11-18 03:53:00
10:53 PM,45.0,34.0,65,30.09,10.0,South,10.4,-,N/A,,Clear,180,2012-11-18 04:53:00
11:53 PM,44.1,34.0,68,30.09,10.0,South,10.4,-,N/A,,Clear,180,2012-11-18 05:53:00